RH
6 6 8 16 40 72 69 59 56 38 41 46 46 49 49 45 47 50 35 42 41 25 43 34 24 17 12 12 11 11 11 11 10 8 6 5 6 5 5 5 5 5 6 5 5 5 5 5 5
8 9 8 13 28 82 75 47 52 43 47 45 43 52 51 47 45 41 40 47 34 25 34 33 24 16 12 12 11 11 11 10 8 6 5 5 6 5 5 5 5 5 6 6 6 5 5 5 4
14 11 10 10 34 47 64 42 46 47 54 46 43 49 52 50 48 42 40 42 29 25 31 30 23 14 12 11 11 10 10 8 6 5 5 6 5 5 5 5 5 6 6 6 6 5 5 5 4
18 14 14 24 16 27 18 23 58 62 56 46 41 47 51 52 49 42 41 33 34 27 29 29 21 13 11 10 11 10 8 7 5 5 5 5 5 5 5 5 6 6 6 6 6 5 5 5 4
22 22 23 26 20 23 29 12 51 67 61 50 42 44 45 52 45 45 41 30 35 28 28 30 19 12 10 10 10 9 8 6 5 5 5 5 6 6 6 5 6 6 6 6 6 5 5 5 4
32 46 50 35 30 18 25 17 39 60 63 53 49 43 53 53 52 42 36 20 34 28 27 29 16 11 10 10 10 10 9 7 6 6 5 5 6 6 6 6 6 6 6 6 6 5 5 5 4
85 61 61 66 43 29 10 25 45 46 62 60 58 47 54 60 55 48 38 19 30 28 28 26 15 11 10 10 10 11 10 8 7 6 6 6 6 6 6 6 6 6 6 6 6 6 5 5 4
83 98 62 60 46 34 18 16 36 64 65 62 56 54 40 56 60 53 41 17 24 28 29 24 15 12 11 11 11 11 11 10 8 7 7 7 6 6 6 6 6 6 7 6 6 6 6 5 5
95 74 92 83 47 30 32 29 26 31 59 75 76 54 42 48 66 57 43 19 27 27 29 21 14 12 12 11 11 11 11 11 10 9 8 7 7 6 6 6 6 6 7 6 6 6 6 6 5
89 92 77 70 53 50 38 38 30 34 41 60 96 74 64 52 68 56 40 22 24 27 27 21 14 12 12 12 12 12 11 11 11 11 10 9 8 7 7 7 7 7 7 7 6 6 6 6 6
78 85 81 69 60 64 39 37 39 48 76 71 77 85 80 62 71 59 46 25 23 30 29 19 15 12 12 13 12 12 12 12 11 12 12 11 10 8 8 7 7 7 7 7 7 6 6 6 6
89 79 72 68 64 63 45 37 43 65 80 83 80 87 93 78 84 65 52 30 30 30 30 21 15 13 12 12 12 12 12 12 11 12 12 12 12 12 11 9 8 7 8 8 8 7 7 7 6
95 80 81 61 52 58 45 38 52 63 81 80 72 77 73 82 77 70 56 40 34 33 26 24 17 14 12 13 13 13 13 13 12 12 12 12 12 12 12 11 10 8 8 8 8 8 7 7 7
92 89 74 62 54 53 41 36 53 61 79 84 72 89 68 88 69 81 64 47 68 40 28 25 21 17 14 14 14 14 14 15 14 15 14 14 13 12 12 11 11 10 9 8 9 8 8 8 8
81 77 77 66 65 57 56 34 42 56 76 85 83 87 90 82 92 58 70 51 39 34 34 31 28 21 17 16 16 17 17 18 19 21 22 21 19 15 13 12 12 12 10 9 9 9 9 8 8
94 94 88 66 68 62 67 44 28 51 70 77 78 78 83 94 98 86 76 66 51 40 33 48 37 30 23 19 19 20 22 23 25 27 27 27 26 22 18 14 13 12 12 10 10 10 10 10 9
89 91 86 81 74 67 67 50 39 34 54 64 75 72 75 80 95 99 86 75 71 58 46 49 52 38 32 24 22 25 28 31 34 34 34 32 30 27 24 21 16 14 13 12 11 11 11 11 10
99 95 87 91 81 86 77 64 48 42 43 45 54 65 65 68 84 83 100 75 82 72 60 52 52 44 36 29 27 32 37 42 47 45 43 39 35 33 32 30 23 16 14 13 12 12 12 12 11
99 95 92 76 80 78 76 70 56 48 58 58 34 37 52 52 65 88 99 79 87 70 73 63 50 44 39 34 32 38 51 62 64 59 54 47 40 37 37 36 29 20 16 15 15 14 13 13 12
84 83 78 74 80 83 76 72 57 51 64 78 65 62 45 54 83 96 98 98 98 64 60 71 61 46 42 37 35 48 69 83 77 67 64 57 47 43 42 41 34 22 17 16 16 16 15 14 12
67 83 80 88 83 74 76 78 65 41 55 69 64 72 51 52 60 72 98 98 97 73 69 78 72 58 48 48 66 87 95 93 82 75 73 70 64 54 50 43 35 23 18 19 19 18 17 15 12
71 71 80 79 81 77 80 91 62 42 38 52 64 71 53 49 47 81 84 94 100 90 91 91 89 72 72 89 100 100 99 86 90 95 92 79 80 70 50 49 33 23 19 21 22 20 18 15 17
67 71 65 68 68 73 65 86 56 42 43 38 58 61 62 60 60 69 71 76 92 100 90 98 100 100 99 100 98 94 97 100 95 97 79 69 68 54 40 32 26 23 22 23 24 23 18 18 22
76 68 66 72 70 88 62 71 59 45 43 44 44 44 58 54 55 58 65 61 83 95 98 100 100 100 100 99 99 90 90 100 96 76 72 59 45 36 30 27 24 25 26 27 26 22 21 26 30
72 72 79 91 95 89 55 70 58 44 46 42 48 52 60 54 69 56 60 76 82 89 91 100 100 100 100 92 94 99 97 100 98 91 59 48 40 31 27 25 26 30 30 32 28 26 30 33 33
63 73 76 91 92 78 61 60 46 41 40 43 43 63 61 49 67 86 76 95 98 99 99 85 92 100 98 91 100 98 91 76 79 60 47 43 34 29 27 30 32 32 35 32 32 38 36 34 34
66 66 66 73 64 77 58 44 48 42 44 43 38 56 75 59 65 82 84 90 100 96 87 78 70 90 97 99 89 89 97 96 59 56 47 36 31 31 35 35 34 36 36 37 40 38 38 37 34
46 56 60 63 80 73 58 57 48 45 43 46 46 53 68 75 56 72 85 84 90 95 91 79 67 82 98 75 69 97 100 78 63 52 37 34 36 36 37 38 39 44 44 41 40 39 38 34 30
47 54 54 55 53 72 69 45 36 37 46 49 51 58 61 74 71 68 80 85 89 92 90 88 90 100 100 94 100 100 92 75 53 39 38 38 39 40 40 43 46 44 43 44 42 39 34 27 22
44 43 54 54 50 47 49 49 37 27 26 41 50 55 60 54 56 65 74 77 82 88 96 100 99 97 99 100 100 99 82 51 42 39 40 42 43 43 46 46 46 46 46 42 36 29 24 20 17
Wind_Speed
25 28 32 30 19 16 24 29 28 18 15 8 21 13 13 14 16 6 4 9 11 14 13 12 10 10 10 10 9 9 10 10 11 11 11 12 12 12 11 11 11 12 12 13 13 13 13 14 14
22 24 26 28 28 24 26 30 29 20 8 12 16 14 16 17 19 17 6 4 15 16 14 13 11 10 10 10 9 10 10 10 11 12 12 12 11 11 10 10 11 11 12 12 12 13 13 14 14
18 23 25 25 29 36 29 32 21 20 20 19 21 18 19 20 19 17 9 6 16 19 16 15 13 11 10 9 10 10 10 10 11 11 11 11 10 9 9 10 10 10 11 11 12 13 14 15 15
19 23 25 30 30 27 39 36 14 19 22 20 23 22 25 21 18 16 12 8 18 20 19 16 14 13 11 10 10 11 11 11 11 11 11 11 9 9 8 9 9 9 10 10 11 13 14 15 16
20 23 27 30 35 25 15 32 28 14 27 25 26 25 27 24 18 15 14 10 18 21 19 18 15 14 13 12 11 11 11 10 11 11 11 10 9 8 7 8 7 7 9 10 11 12 14 15 16
20 21 16 28 26 27 24 22 32 26 19 23 30 26 27 26 19 15 14 13 23 21 20 18 16 15 14 13 12 11 10 10 10 10 10 9 8 7 6 6 6 6 8 9 11 13 14 15 16
14 20 27 20 11 15 21 21 22 18 26 27 34 30 28 28 24 21 14 17 24 23 20 17 17 16 15 13 12 11 11 10 10 10 9 8 7 6 5 4 4 5 7 8 10 12 14 15 17
18 17 28 26 22 18 17 32 26 16 22 21 34 38 35 28 26 25 18 20 24 24 21 19 18 18 17 14 12 11 10 10 10 9 9 8 7 6 5 3 3 4 6 7 10 11 13 15 17
9 22 22 23 20 23 15 22 24 24 25 25 28 36 34 28 29 29 23 22 27 26 23 22 21 20 18 15 13 11 10 9 9 8 7 6 5 4 4 3 2 3 5 6 8 10 13 15 16
15 20 23 21 14 17 23 20 17 21 29 37 30 38 36 31 27 29 24 23 28 28 26 24 23 21 18 16 14 12 10 9 8 7 6 4 3 3 2 2 2 3 4 7 9 10 12 14 15
16 21 17 12 18 16 28 26 22 17 24 35 38 43 32 41 29 30 26 24 27 28 27 25 25 23 19 16 14 12 11 9 8 6 5 5 2 1 0 1 3 4 5 6 8 9 11 13 15
18 17 16 13 21 21 29 29 22 19 15 19 27 34 28 39 29 30 27 26 30 31 28 26 26 23 21 18 15 13 11 9 8 6 5 4 2 1 1 1 2 4 5 6 8 9 11 13 15
15 14 15 12 20 26 31 32 23 22 11 17 24 22 37 34 32 34 31 30 32 31 27 28 26 23 21 18 16 14 12 10 8 6 5 3 2 2 3 3 3 5 6 7 8 9 11 13 14
13 11 14 17 19 27 33 36 26 25 15 14 24 20 24 29 35 33 34 32 32 30 27 26 26 24 21 19 17 14 13 11 8 6 6 4 4 4 5 6 5 6 7 8 9 9 11 13 14
15 16 16 14 17 23 28 41 40 29 16 23 18 19 20 40 39 40 34 32 31 29 27 26 25 24 22 19 17 15 14 11 9 8 7 6 6 6 7 9 7 7 8 9 9 10 11 13 14
9 10 14 13 14 13 22 38 43 34 27 23 27 20 24 31 44 39 29 30 30 26 26 26 24 23 22 19 18 16 14 12 10 9 9 8 8 8 8 10 10 9 9 10 11 12 12 13 14
4 8 11 10 11 13 18 35 27 42 35 28 28 21 24 24 29 40 28 26 26 23 25 25 25 25 23 20 19 17 14 13 11 11 10 10 10 9 10 10 11 11 11 12 12 12 13 14 14
9 6 8 13 7 11 19 31 28 22 34 25 34 26 28 30 30 41 35 26 24 23 24 25 27 27 25 23 21 19 16 15 12 12 12 11 13 12 12 12 12 13 12 13 14 14 14 15 16
9 12 12 11 13 17 21 21 23 20 21 24 24 35 32 30 29 28 33 33 30 25 26 26 26 28 26 25 24 21 19 17 16 14 11 11 14 15 15 14 14 14 15 15 15 16 16 17 17
7 11 13 10 6 16 17 22 21 22 23 19 22 24 33 26 24 40 27 36 36 31 27 30 27 26 28 27 24 22 22 18 18 14 12 10 13 16 17 16 18 17 16 16 16 17 18 18 19
7 8 13 15 12 11 18 27 25 26 28 25 28 14 32 33 27 36 32 34 40 33 28 30 28 28 28 25 22 22 25 23 16 12 12 14 15 18 21 19 18 19 19 17 17 19 20 21 21
9 10 11 11 10 6 3 9 24 16 30 33 23 15 28 37 33 32 36 36 38 38 34 30 26 26 26 23 26 30 30 21 18 15 19 27 28 23 24 22 20 18 20 19 18 19 21 22 24
8 9 11 11 11 17 21 10 16 14 19 27 27 18 20 37 34 29 30 34 41 45 37 29 27 26 30 33 28 25 23 34 36 22 15 19 17 22 24 22 19 19 20 19 20 21 23 24 24
8 11 8 5 8 5 11 14 18 13 24 18 32 25 19 28 31 29 28 24 27 27 32 30 31 33 29 30 23 18 13 15 14 16 17 16 20 21 22 22 20 20 20 19 21 23 24 25 24
5 6 4 1 1 6 10 15 29 17 14 19 27 22 18 23 24 23 23 22 24 37 37 24 19 24 25 23 27 20 18 15 13 19 21 18 21 22 21 22 21 21 21 22 23 25 26 26 27
7 5 3 3 2 6 12 7 9 11 12 14 22 22 19 20 21 22 21 23 20 23 26 27 10 13 16 21 17 10 10 13 19 19 19 20 21 22 22 21 21 22 23 24 26 26 27 29 31
2 8 6 7 10 4 6 9 17 12 12 17 22 24 23 20 22 22 23 21 21 21 23 15 17 8 15 13 9 14 20 21 20 19 20 19 20 21 21 21 22 24 25 27 27 29 31 33 36
15 9 3 6 2 4 6 10 10 8 13 16 17 20 23 22 21 22 20 20 22 19 22 23 20 21 24 18 16 21 23 20 19 20 19 19 19 21 21 22 24 26 27 28 30 33 36 38 39
10 11 10 6 8 4 3 6 17 15 8 13 15 18 21 21 21 22 22 23 23 23 25 22 23 25 30 21 23 23 21 19 19 19 19 20 20 20 22 24 26 27 30 33 36 38 40 40 40
14 15 13 7 5 6 5 13 9 10 9 9 15 16 24 24 24 26 26 25 22 22 22 24 22 22 25 19 17 21 20 20 19 19 19 20 20 22 25 26 28 31 34 38 40 39 40 41 40
Wind_Direction
239 238 237 238 230 226 230 228 231 207 227 243 223 216 202 203 194 203 158 209 203 189 189 186 192 185 176 169 159 148 139 134 128 121 116 112 107 98 88 79 71 65 63 59 52 42 32 24 16
236 233 233 228 226 218 228 232 230 210 222 205 211 208 206 210 209 224 210 184 193 191 190 190 192 190 181 168 158 148 143 137 130 125 121 116 108 98 87 76 68 65 61 54 45 34 25 19 12
230 224 221 218 226 223 224 228 240 230 243 238 212 214 215 210 225 225 223 209 200 188 190 194 192 184 183 169 156 150 144 137 131 127 124 120 111 100 89 77 69 64 58 48 38 28 21 15 10
218 219 219 224 225 234 232 228 220 249 225 221 226 216 220 221 228 233 232 223 198 189 191 193 190 183 176 169 158 152 144 139 135 131 129 126 118 107 93 79 67 60 53 43 34 26 19 12 7
226 214 216 231 233 221 212 231 228 246 228 222 222 225 224 220 223 230 224 218 196 193 193 195 188 181 174 170 159 152 145 142 139 138 135 131 123 112 96 83 72 62 50 37 29 23 17 11 6
216 212 227 238 236 234 216 215 220 238 240 217 223 226 226 222 220 226 221 200 192 196 195 196 189 178 173 170 158 151 146 145 143 143 140 136 127 116 103 89 76 59 44 30 25 20 16 10 7
219 216 231 232 219 227 232 210 212 236 242 227 229 223 225 222 216 226 225 192 193 195 197 192 192 179 175 165 156 151 147 146 146 146 144 140 135 127 115 98 77 53 36 25 22 18 14 9 6
217 229 240 237 228 220 192 213 223 237 237 238 225 217 220 219 216 224 224 201 196 196 192 191 188 183 176 167 158 153 148 148 150 150 150 148 145 141 133 110 74 47 27 20 21 14 11 11 6
230 231 245 249 232 222 200 234 220 226 238 217 226 223 227 224 214 219 220 206 192 196 193 191 188 186 177 171 165 159 152 151 150 152 152 149 149 152 138 107 66 32 15 9 13 13 10 7 5
225 244 247 251 231 244 242 249 228 222 228 229 222 220 227 230 226 223 220 209 198 196 194 192 188 187 180 175 171 166 160 154 155 156 150 143 148 162 137 86 35 5 359 358 4 4 4 4 4
242 252 264 270 220 238 240 235 247 237 211 223 235 223 210 212 223 221 218 212 205 198 195 195 191 187 182 182 180 175 170 166 165 162 160 147 170 191 132 10 352 342 344 348 349 352 358 356 358
266 264 262 247 224 232 235 235 242 222 222 227 237 244 189 202 219 217 220 212 204 204 197 194 195 190 188 187 188 185 182 175 180 177 187 164 169 237 264 301 314 313 320 329 337 344 347 351 355
264 271 257 256 234 234 231 228 249 218 205 226 243 250 241 200 206 211 215 215 207 208 201 193 194 195 193 192 194 192 191 189 189 194 210 203 216 261 282 284 291 299 306 315 326 334 337 344 350
269 272 270 252 238 233 238 230 244 218 206 211 220 233 231 210 218 216 218 214 201 209 205 198 194 198 200 197 201 197 199 196 197 207 227 233 254 267 283 284 290 296 301 306 313 322 328 336 344
268 269 265 261 259 241 244 241 242 225 214 210 210 228 236 215 213 216 227 216 212 211 209 198 199 200 205 204 206 205 206 204 205 218 238 248 261 276 284 285 291 292 294 296 302 312 323 332 336
314 274 278 303 254 264 237 244 228 227 230 212 223 234 243 234 204 203 204 211 212 215 215 204 202 205 209 209 212 212 211 212 218 228 241 255 263 274 281 292 294 291 291 294 302 308 316 322 329
292 282 304 319 277 247 237 247 239 226 235 231 222 248 245 249 242 202 190 199 206 210 217 210 210 208 210 211 217 218 217 221 228 241 249 260 268 274 280 285 291 292 293 293 294 300 308 315 326
325 269 303 303 314 282 259 258 258 235 235 244 229 236 254 257 242 227 195 187 194 199 208 211 214 213 210 211 213 219 219 224 232 246 256 268 274 275 279 285 289 291 290 290 294 298 306 315 323
330 326 310 284 307 264 263 277 261 231 227 237 229 227 237 254 240 203 202 205 196 198 203 211 216 217 214 214 214 217 221 225 230 237 253 270 274 280 284 287 290 290 291 292 295 300 306 314 323
307 297 310 307 301 287 277 273 288 237 227 223 216 228 231 236 244 228 222 202 205 206 206 208 209 215 216 219 222 222 223 223 230 238 249 258 277 286 288 293 295 291 288 291 295 301 307 312 319
307 285 287 298 317 276 282 272 269 232 236 220 221 228 221 231 225 226 228 220 214 208 209 208 205 207 211 211 219 228 225 217 214 227 250 266 293 295 294 293 290 291 290 290 296 303 309 315 318
289 308 283 291 303 293 313 288 279 278 242 238 234 226 227 231 230 230 236 233 198 207 203 206 204 208 218 211 217 223 217 221 224 261 279 274 271 284 287 289 287 286 286 286 297 303 307 314 319
306 302 310 312 287 298 289 251 283 271 249 241 234 232 242 231 230 232 233 248 215 200 201 206 202 208 212 214 214 229 252 250 247 247 268 272 276 276 279 281 280 282 283 288 296 303 307 312 314
296 308 302 302 303 278 310 238 276 286 255 260 223 232 244 236 235 231 227 242 235 232 215 206 205 204 207 216 238 279 224 230 238 253 261 262 276 282 281 278 277 274 278 287 293 299 305 308 310
302 317 3 27 271 236 314 289 256 261 289 254 223 223 242 243 230 214 221 231 219 235 247 205 199 206 228 245 250 231 225 229 237 252 260 274 275 276 275 273 272 274 281 288 295 300 304 307 309
289 281 283 261 240 276 298 270 279 287 263 254 216 221 243 234 224 204 210 218 217 213 221 231 260 239 225 222 231 240 230 249 257 262 271 276 276 271 268 266 269 275 282 291 297 301 303 304 304
247 224 276 267 279 271 243 330 297 266 230 219 226 226 223 222 223 218 215 215 218 226 224 238 236 226 224 220 232 244 248 251 253 261 269 269 266 265 264 267 274 281 290 295 298 300 300 301 302
250 255 276 233 292 297 276 282 289 310 238 238 248 236 225 220 218 220 220 217 213 219 206 197 216 214 210 192 244 252 254 259 269 275 275 268 263 263 266 273 281 288 293 296 297 297 299 300 300
253 255 242 255 259 212 289 281 322 321 260 239 251 225 229 225 221 220 223 226 227 215 208 209 213 214 217 228 231 245 253 263 266 267 261 262 265 271 278 283 288 291 293 295 296 298 298 298 298
271 267 250 230 253 257 289 286 298 341 342 271 235 230 224 234 235 230 221 222 224 221 217 216 217 215 227 222 235 246 255 259 256 258 260 265 271 276 281 284 288 291 293 295 296 297 296 296 296